Погода в Погиби

Погода в Погиби : погода сейчас, прогноз погоды и архив. Всё, что Вы хотите узнать о погоде в Погиби!

Хотите узнать прогноз погоды в Погиби? Тогда Вам сюда: Погода в Погиби

Поиск расширенной информации на нашем сайте:

Другие новости

Новости СМИ2

Главная страница сайта

Новости сайта

03.07.2017

Напоминаем, что на нашем специализированном сайте Метеоцентр.Азия вы можете получить высокодетализированные автоматические прогнозы погоды по пунктам России, СНГ и мира в авиационном формате (включающие направление и скорость ветра, видимость, явления погоды, количество и форму облачности, нижнюю и верхнюю границу облачности).


Погода в Погиби - сегодня

Время (UTC), дата Ветер
(°,м/с) 
Видим.   Явления Облачность Т
(°С)
Тd
(°С)
f(%) Тe
(°С)
Pmin
(гПа)
dP
(гПа)
Po
(мм)
O2
(г/м3)
Тmin Tmax R s Состояние
почвы
21 07.04.18 320 (СЗ) 2-4{04}  20000 м    10/10 300 м 
[St]
-12 -13.3 90 -14  997.4  -0.2  747  316  -12.5      166  очень
неравномерный
сухой снег
(сугробы, заносы) 
21 08.04.18 тихо () -0{02}  20000 м    8/0 средняя 
[Ac trans]
-10.5 -11.8 90 -11  998.8  0.2  748  315  -10.7      166  очень
неравномерный
сухой снег
(сугробы, заносы) 
21 09.04.18 180 (Ю) 2-2{04}  10 км  дымка  10/10 300 м 
[St]
-9.6 -11.2 88 -11  1004.3  0.1  753  315  -9.6      166  очень
неравномерный
сухой снег
(сугробы, заносы) 
21 10.04.18 тихо () -0{00}  20000 м    9/4 600 м кучево-дожд., средняя, верхняя 
[Cb cap|Ac trans|Ci sp]
-7.4 -10 82 -7  1011.5  0.7  758  315  -7.6      164  неравномерный
мокрый или
старый снег
100% 
21 11.04.18 360 (С) 6-8{08}  20000 м    10/10 600 м кучево-дожд. 
[Cb cap]
-9.6 -11.7 85 -15  1009.2  0.4  756  317  -9.9      163  неравномерный
мокрый или
старый снег
100% 
00 12.04.18 360 (С) 8-10{12}  20000 м  позёмок{ливн. осадки}  9/9 600 м кучево-дожд. 
[Cb cap]
-9.4 -11.5 85 -16  1011.1  1.9  758  317           
21 12.04.18 360 (С) 2-2{02}  20000 м    4/0 средняя, верхняя 
[Ac trans|Ci sp]
-13.4 -15.4 85 -16  1013.6  0.4  760  323  -13.7      163  неравномерный
мокрый или
старый снег
100% 
18 13.04.18 320 (СЗ) 2-2{02}  20000 м    ясно 
-6.8 -8.4 88 -8  1009.4  -0.1  756  313           
21 13.04.18 360 (С) 2-2{02}  20000 м    4/0 верхняя 
[Ci sp]
-9 -11.9 79 -11  1009.4  756  316  -9      161  неравномерный
мокрый или
старый снег
100% 
12 14.04.18 360 (С) 2-2{02}  20000 м    ясно 
-10.6 -13.4 80 -12  1012.2  0.4  758  319           
15 14.04.18 360 (С) 2-2{04}  20000 м    ясно 
-12.4 -15.1 80 -14  1011.9  -0.3  758  321           
18 14.04.18 360 (С) 2-2{04}  20000 м    ясно 
-12.8 -14.8 85 -15  1010.8  -1.1  757  322           
21 14.04.18 тихо () -0{02}  20000 м    6/0 средняя, верхняя 
[Ac trans|Ci sp]
-12.2 -14.2 85 -12  1010.8  757  321  -13      157  неравномерный
мокрый или
старый снег
100% 
15 15.04.18 110 (В) 2-2{02}  20000 м    ясно 
-6.8 -8.8 86 -8  1004  -0.6  752  312           
18 15.04.18 160 (Ю) 2-2{02}  20000 м    ясно 
-8.6 -10.5 86 -10  1004.2  -0.2  752  314           
21 15.04.18 160 (Ю) 2-2{04}  20000 м    5/0 верхняя 
[Ci sp]
-8.5 -9.6 92 -10  1002.3  -1.9  751  313  -9.3      155  неравномерный
мокрый или
старый снег
100% 
12 16.04.18 180 (Ю) 4-4{06}  20000 м    ясно 
-1.4 -3.1 88 -4  1000.3  0.7  750  304           
15 16.04.18 180 (Ю) 4-4{06}  20000 м    ясно 
-5.3 -6.7 90 -9  1000.3  750  309           
18 16.04.18 180 (Ю) 4-4{06}  20000 м    ясно 
  1000.6  0.3  750             
15 17.04.18 180 (Ю) 4-4{06}  20000 м    ясно 
-2.4 -5.3 80 -5  1001.1  0.4  750  306           
18 17.04.18 180 (Ю) 4-4{06}  20000 м    ясно 
-4.6 -7.7 79 -8  1001.4  0.3  750  308           
21 17.04.18 180 (Ю) 4-4{06}  10 км  дымка  10/10 300 м 
[St]
-3 -3.7 95 -6  1002.6  1.2  751  307  -4.6      150  неравномерный
мокрый или
старый снег
100% 
00 18.04.18 180 (Ю) 2-2{04}  10 км  дымка  10/10 300 м 
[St]
+0.5 -0.3 94 1004.6  753  303           
15 18.04.18 тихо () -0{00}  20000 м    ясно 
-2.3 -4.5 85 -2  1007.1  0.7  755  307           
21 18.04.18 180 (Ю) 2-2{02}  10 км  дымка  10/10 300 м 
[St]
-1.9 -4.3 84 -3  1007.9  0.1  755  307  -3      146  неравномерный
мокрый или
старый снег
100% 
Время (UTC), дата Ветер
(°,м/с) 
Видим.   Явления Облачность Т
(°С)
Тd
(°С)
f(%) Тe
(°С)
Pmin
(гПа)
dP
(гПа)
Po
(мм)
O2
(г/м3)
Тmin Tmax R s Состояние
почвы

Для получения пояснительной информации подведите курсор к названию столбца.

ПОГОДА в Погиби - архив

Всё, что Вы хотите узнать о погоде в Погиби - удобно и подробно!

Выберите нужную дату (начиная с 1 января 2015* года) и нажмите кнопку "Найти".
Будут отображены архивные сводки погоды по пункту Погиби, начиная с указанной даты.


Отображать данные в формате CSV (для использования в таблицах Excel)


Внимание! Наш архив погоды предназначен исключительно для личного некоммерческого использования в познавательных целях. Если Вам необходимы официальные справки о состоянии погоды (для производственных, юридических, коммерческих и т.п. целей), обращайтесь в органы Росгидромета.

*Примечание: данная дата относится к архиву по метеостанциям СССР (Россия, СНГ, Балтия).
Архив по метеостанциям Зарубежной Европы и Азии (кроме Китая) хранится 10 дней, по другим регионам земного шара (Китай, Африка, Америка, Австралия, Океания) - 1 день.

Погиби - район местоположения метеостанции


Название, широта, долгота, высота метеостанции:
Погиби 52.2°ш. 141.6°д. 6 м над ур. моря [Российская Федерация]

Дополнительная информация

В oтличие oт бoльшинства пoгoдных сайтoв мы публикуем пoдрoбную метеoинфoрмацию в детальнoм прoфессиoнальнoм фoрмате.

Характеристики температуры и влажнoсти вoздуха измеряются на высoте 2 м в тени вдали oт зданий и деревьев.
Скoрoсть ветра измеряется на высoте 10 м (на урoвне рoста челoвека скoрoсть ветра ниже в 1.5-2 раза). Если метеoстанция нахoдится в гoрoде или в лесу, тo скoрoсть ветра занижена на 2-4 м/с пo сравнению с oткрытым местoм. Скoрoсть ветра над акватoриями крупных рек и oзёр, а также на вершинах хoлмoв на 2-5 м/с выше, чем в oбычных услoвиях.
Атмoсфернoе давление в разных тoчках местнoсти мoжет значительнo oтличаться oт давления на метеoстанции, в зависимoсти oт услoвий рельефа (при пoдъёме на 10 м давление пoнижается примернo на 1 мм рт.ст.).